Regional Weather Roundup
Issued by NWS

Home | Current Version | Previous Version | Text Only | Print | Product List | Glossary On
Versions: 1 2 3 4 5 6 7 8 9 10 11 12 13 14 15 16 17 18 19 20 21 22 23 24 25 26 27 28 29 30 31 32 33 34 35 36 37 38 39 40 41 42 43 44 45 46 47 48 49 50
000
ASUS43 KDMX 010407
RWRIA

WEATHER ROUNDUP FOR IOWA
NATIONAL WEATHER SERVICE DES MOINES IA
1100 PM CDT TUE SEP 30 2014

NOTE: "FAIR" INDICATES FEW OR NO CLOUDS BELOW 12,000 FEET WITH NO
SIGNIFICANT WEATHER AND/OR OBSTRUCTIONS TO VISIBILITY.

* - THESE STATIONS ARE NOT NWS STATIONS...THUS NOT UNDER NWS
QUALITY CONTROL.  THEY ALSO DO NOT REPORT WEATHER SUCH
AS PRECIPITATION OR FOG.

IAZ001>003-012>014-020>022-031>034-043>046-010500-
   NORTHWEST IOWA

CITY           SKY/WX    TMP DP  RH WIND       PRES   REMARKS
CARROLL *      CLOUDY    61  61 100 SE17G24   29.82F
CHEROKEE *     CLOUDY    61  61 100 SE10      29.81F FOG
DENISON *      MOCLDY    63  63 100 SE8       29.79F
LE MARS *        N/A     61  61 100 SE14G22   29.78F
ORANGE CITY *  CLOUDY    63  59  88 SE9       29.79S FOG
SHELDON *      CLOUDY    61  59  94 SE15G23   29.78F
SIOUX CITY     PTCLDY    62  61  96 SE7       29.78R
SPENCER        CLOUDY    60  57  89 SE17      29.82S
STORM LAKE *   CLOUDY    61  59  94 SE13G21   29.83F FOG
$$

IAZ055>058-069>071-079>083-090>094-010500-
   SOUTHWEST IOWA

CITY           SKY/WX    TMP DP  RH WIND       PRES   REMARKS
ATLANTIC *     DRIZZLE   64  63  94 E12       29.82S
AUDUBON *      CLOUDY    61  55  82 E10       29.84F HAZE
CLARINDA *     LGT RAIN  66  66 100 CALM      29.81R
COUNCIL BLFS * CLOUDY    64  64 100 SE14      29.79S
CRESTON *      MOCLDY    64  63  94 E13       29.83S
HARLAN  *      MOCLDY    63  63 100 SE16G24   29.81F
RED OAK *      LGT RAIN  64  64 100 NE7       29.81S
SHENANDOAH *   LGT RAIN  66  64  94 NE8       29.79F
$$

IAZ047>049-059>061-072>074-084-010500-
   CENTRAL IOWA

CITY           SKY/WX    TMP DP  RH WIND       PRES   REMARKS
AMES           LGT RAIN  59  57  93 E9        29.87F
ANKENY *       CLOUDY    63  57  82 E7        29.86F
CHARITON *     MOCLDY    64  59  82 SE10      29.86F
DES MOINES     CLOUDY    66  57  72 SE10      29.84F
GRINNELL*      CLOUDY    59  52  77 E13       29.90S
KNOXVILLE *    CLOUDY    63  55  77 E10G17    29.85F
MARSHALLTOWN   CLOUDY    58  52  80 E9        29.90R
PELLA *        CLOUDY    61  55  82 E9        29.89F
PERRY *        MOCLDY    60  59  96 E7        29.86F FOG
$$

IAZ004>006-015-016-023>025-035-036-010500-
   NORTH CENTRAL IOWA

CITY           SKY/WX    TMP DP  RH WIND       PRES   REMARKS
ALGONA *       CLOUDY    59  57  94 SE14      29.85F
CLARION *      CLOUDY    57  57 100 SE21G33   29.85F
ESTHERVILLE    CLOUDY    57  56  96 SE14      29.84S
FORT DODGE *   CLOUDY    59  55  88 SE16      29.84F
MASON CITY     LGT RAIN  56  51  84 SE14      29.89F
FOREST CITY *  PTCLDY    55  54  94 SE13      29.87F
IOWA FALLS *   LGT RAIN  57  55  94 CALM      29.94R
$$

IAZ007>011-017>019-026>030-037>042-050>054-066-010500-
   NORTHEAST IOWA

CITY           SKY/WX    TMP DP  RH WIND       PRES   REMARKS
CEDAR RAPIDS   CLEAR     54  46  76 E10       29.92F
CHARLES CITY * CLOUDY    54  46  76 SE7       29.94F
CLINTON *      CLEAR     52  45  76 E13       30.00F
DECORAH *      MOCLDY    48  45  87 VRB6G15   29.94F
MONTICELLO *   CLEAR     52  46  82 E7G16     29.95F
OELWEIN *      MOCLDY    52  45  76 SE14      29.94S
WATERLOO       CLOUDY    54  46  74 SE12      29.91F
$$

IAZ064-065-067-068-078-010500-
   EAST CENTRAL IOWA

CITY           SKY/WX    TMP DP  RH WIND       PRES   REMARKS
IOWA CITY      PTCLDY    55  48  77 E9        29.94S
MT. PLEASANT * CLEAR     59  52  77 E9        29.91F
MUSCATINE *    CLEAR     59  48  67 E10       29.94S
$$

IAZ062-063-075>077-085>089-095>099-010500-
   SOUTHEAST IOWA

CITY           SKY/WX    TMP DP  RH WIND       PRES   REMARKS
BURLINGTON     CLEAR     59  52  77 E12       29.92F
FAIRFIELD *    CLEAR     59  54  82 E8G14     29.91R
FORT MADISON * CLEAR     61  54  77 E8        29.92S HAZE
KEOKUK *       CLEAR     61  55  82 E12       29.90R
OSKALOOSA *    MOCLDY    61  54  77 E13       29.89F
CENTERVILLE *  CLEAR     63  61  94 E8        29.88F
OTTUMWA        MOCLDY    60  54  80 E9        29.89S
WASHINGTON *   CLEAR     57  54  88 E8G14     29.92R
$$

ABBREVIATIONS USED IN REMARKS
   TC - TEMPERATURES IN CELSIUS
  WCI - WIND CHILL INDEX
   HX - HEAT INDEX
  VSB - VISIBILITY
$$



USA.gov is the U.S. government's official web portal to all federal, state and local government web resources and services.